THY7PY LCEN-LTFM

Flight info

Callsign THY7PY
Flight time 1h 10m
Altitude 36000
Route GIRNE DCT DOREN UA28 MUT UL619 OSVEL UB545 KFK UM855 SISPI
Aircraft B738/M-SDE2E3FGHIRWXY/LB1

Departure

Time 2026-05-06 19:11
Airport Ercan International Airport (LCEN)

Arrival

Time 2026-05-06 20:22
Airport İstanbul Airport (LTFM)
Time Latitude Longitude Altitude Speed Heading
2026-05-06 18:49 35.15698 33.50310 409 ft 0 kts 22°
2026-05-06 19:03 35.15690 33.50307 409 ft 2 kts 10°
2026-05-06 19:03 35.15675 33.50307 409 ft 2 kts 348°
2026-05-06 19:04 35.15662 33.50314 409 ft 2 kts 327°
2026-05-06 19:04 35.15651 33.50326 409 ft 2 kts 306°
2026-05-06 19:04 35.15644 33.50342 409 ft 2 kts 290°
2026-05-06 19:04 35.15641 33.50350 409 ft 0 kts 294°
2026-05-06 19:06 35.15642 33.50346 409 ft 2 kts 294°
2026-05-06 19:07 35.15640 33.50314 409 ft 5 kts 235°
2026-05-06 19:07 35.15599 33.50286 409 ft 6 kts 203°
2026-05-06 19:07 35.15546 33.50257 409 ft 9 kts 205°
2026-05-06 19:07 35.15486 33.50267 409 ft 11 kts 126°
2026-05-06 19:08 35.15446 33.50380 409 ft 17 kts 112°
2026-05-06 19:08 35.15383 33.50570 409 ft 28 kts 112°
2026-05-06 19:08 35.15307 33.50799 409 ft 29 kts 112°
2026-05-06 19:08 35.15226 33.51044 409 ft 31 kts 112°
2026-05-06 19:09 35.15151 33.51278 409 ft 27 kts 111°
2026-05-06 19:09 35.15105 33.51428 409 ft 13 kts 100°
2026-05-06 19:09 35.15119 33.51520 409 ft 8 kts 88°
2026-05-06 19:09 35.15084 33.51551 409 ft 6 kts 194°
2026-05-06 19:10 35.15066 33.51505 409 ft 8 kts 290°
2026-05-06 19:10 35.15097 33.51426 409 ft 15 kts 291°
2026-05-06 19:10 35.15221 33.51049 409 ft 82 kts 292°
2026-05-06 19:10 35.15493 33.50233 409 ft 121 kts 291°
2026-05-06 19:11 35.15849 33.49125 411 ft 159 kts 290°
2026-05-06 19:11 35.16275 33.47808 699 ft 167 kts 292°
2026-05-06 19:11 35.16820 33.46497 1138 ft 181 kts 311°
2026-05-06 19:11 35.17746 33.45559 1875 ft 180 kts 323°
2026-05-06 19:12 35.18769 33.44534 2114 ft 202 kts 317°
2026-05-06 19:12 35.19837 33.43288 2391 ft 225 kts 315°
2026-05-06 19:12 35.20990 33.41895 2874 ft 240 kts 315°
2026-05-06 19:12 35.22221 33.40402 3341 ft 256 kts 315°
2026-05-06 19:13 35.23494 33.38860 4045 ft 262 kts 315°
2026-05-06 19:13 35.24777 33.37306 4765 ft 266 kts 315°
2026-05-06 19:13 35.26096 33.35732 5503 ft 269 kts 319°
2026-05-06 19:13 35.27699 33.34544 6196 ft 275 kts 341°
2026-05-06 19:14 35.29580 33.34286 6913 ft 278 kts
2026-05-06 19:14 35.31427 33.35027 7607 ft 282 kts 31°
2026-05-06 19:14 35.32813 33.36683 8283 ft 284 kts 56°
2026-05-06 19:14 35.33791 33.38756 8951 ft 287 kts 65°
2026-05-06 19:15 35.34661 33.40981 9586 ft 291 kts 56°
2026-05-06 19:15 35.36123 33.42639 10222 ft 294 kts 26°
2026-05-06 19:15 35.38119 33.43263 10470 ft 311 kts 358°
2026-05-06 19:15 35.40289 33.42646 10556 ft 332 kts 337°
2026-05-06 19:16 35.42520 33.41574 10627 ft 354 kts 340°
2026-05-06 19:16 35.44912 33.40714 11117 ft 362 kts 345°
2026-05-06 19:16 35.47352 33.40026 11656 ft 367 kts 347°
2026-05-06 19:16 35.49849 33.39404 12312 ft 369 kts 348°
2026-05-06 19:17 35.52396 33.38802 12917 ft 373 kts 348°
2026-05-06 19:17 35.54962 33.38211 13532 ft 377 kts 348°
2026-05-06 19:17 35.57533 33.37627 14132 ft 381 kts 348°
2026-05-06 19:17 35.60138 33.37037 14741 ft 384 kts 348°
2026-05-06 19:18 35.62757 33.36447 15335 ft 388 kts 348°
2026-05-06 19:18 35.65420 33.35815 15942 ft 392 kts 347°
2026-05-06 19:18 35.68100 33.35097 16520 ft 395 kts 346°
2026-05-06 19:18 35.70766 33.34367 17085 ft 399 kts 346°
2026-05-06 19:19 35.73463 33.33618 17642 ft 402 kts 343°
2026-05-06 19:19 35.76027 33.32288 18134 ft 404 kts 326°
2026-05-06 19:19 35.78344 33.30276 18767 ft 404 kts 321°
2026-05-06 19:19 35.80582 33.28181 19209 ft 409 kts 321°
2026-05-06 19:20 35.82856 33.26104 19784 ft 411 kts 322°
2026-05-06 19:20 35.85184 33.24023 20254 ft 415 kts 322°
2026-05-06 19:20 35.87505 33.21965 20758 ft 418 kts 322°
2026-05-06 19:20 35.89878 33.19870 21236 ft 421 kts 322°
2026-05-06 19:21 35.92250 33.17780 21707 ft 424 kts 322°
2026-05-06 19:21 35.94636 33.15682 22161 ft 427 kts 322°
2026-05-06 19:21 35.97087 33.13526 22617 ft 430 kts 322°
2026-05-06 19:21 35.99513 33.11395 23052 ft 433 kts 322°
2026-05-06 19:22 36.01952 33.09253 23496 ft 435 kts 322°
2026-05-06 19:22 36.04436 33.07070 23951 ft 437 kts 322°
2026-05-06 19:22 36.06898 33.04905 24366 ft 440 kts 322°
2026-05-06 19:22 36.09400 33.02703 24785 ft 442 kts 322°
2026-05-06 19:23 36.11898 33.00505 25183 ft 444 kts 322°
2026-05-06 19:23 36.14395 32.98304 25583 ft 446 kts 322°
2026-05-06 19:23 36.16932 32.96067 25969 ft 448 kts 322°
2026-05-06 19:23 36.19465 32.93831 26328 ft 451 kts 322°
2026-05-06 19:24 36.22013 32.91582 26702 ft 453 kts 322°
2026-05-06 19:24 36.24583 32.89310 27052 ft 455 kts 322°
2026-05-06 19:24 36.27142 32.87047 27396 ft 457 kts 322°
2026-05-06 19:24 36.29727 32.84759 27709 ft 460 kts 322°
2026-05-06 19:25 36.32357 32.82430 28027 ft 462 kts 322°
2026-05-06 19:25 36.34949 32.80132 28344 ft 464 kts 322°
2026-05-06 19:25 36.37568 32.77808 28635 ft 467 kts 322°
2026-05-06 19:25 36.40222 32.75452 29023 ft 467 kts 322°
2026-05-06 19:26 36.42825 32.73139 29399 ft 467 kts 322°
2026-05-06 19:26 36.45314 32.70925 29763 ft 466 kts 322°
2026-05-06 19:26 36.48056 32.68486 30171 ft 466 kts 322°
2026-05-06 19:26 36.50655 32.66170 30565 ft 465 kts 322°
2026-05-06 19:27 36.53310 32.63804 30932 ft 464 kts 322°
2026-05-06 19:27 36.55909 32.61486 31320 ft 463 kts 321°
2026-05-06 19:27 36.58514 32.59158 31662 ft 463 kts 321°
2026-05-06 19:27 36.61120 32.56828 31997 ft 463 kts 321°
2026-05-06 19:28 36.63719 32.54503 32369 ft 462 kts 321°
2026-05-06 19:28 36.66306 32.52187 32695 ft 461 kts 321°
2026-05-06 19:28 36.68921 32.49842 33023 ft 461 kts 321°
2026-05-06 19:28 36.71477 32.47551 33342 ft 460 kts 321°
2026-05-06 19:29 36.74054 32.45237 33644 ft 460 kts 321°
2026-05-06 19:29 36.76652 32.42901 33954 ft 459 kts 321°
2026-05-06 19:29 36.79226 32.40585 34240 ft 459 kts 321°
2026-05-06 19:29 36.81795 32.38272 34538 ft 459 kts 321°
2026-05-06 19:30 36.84381 32.35943 34874 ft 457 kts 321°
2026-05-06 19:30 36.86972 32.33609 35142 ft 457 kts 321°
2026-05-06 19:30 36.89516 32.31312 35424 ft 456 kts 321°
2026-05-06 19:30 36.92068 32.29008 35692 ft 456 kts 321°
2026-05-06 19:31 36.94624 32.26696 35947 ft 456 kts 321°
2026-05-06 19:31 36.97214 32.24353 36116 ft 457 kts 321°
2026-05-06 19:31 37.02327 32.19723 36101 ft 455 kts 321°
2026-05-06 19:32 37.07438 32.15084 36102 ft 454 kts 321°
2026-05-06 19:32 37.12522 32.10463 36101 ft 456 kts 321°
2026-05-06 19:33 37.17659 32.05786 36109 ft 458 kts 321°
2026-05-06 19:33 37.22794 32.01104 36117 ft 457 kts 321°
2026-05-06 19:34 37.27911 31.96430 36126 ft 457 kts 321°
2026-05-06 19:34 37.33031 31.91744 36128 ft 457 kts 321°
2026-05-06 19:35 37.38144 31.87058 36124 ft 457 kts 321°
2026-05-06 19:35 37.43255 31.82365 36118 ft 457 kts 321°
2026-05-06 19:36 37.48364 31.77665 36116 ft 456 kts 321°
2026-05-06 19:36 37.53469 31.72962 36118 ft 457 kts 321°
2026-05-06 19:37 37.58565 31.68258 36124 ft 457 kts 321°
2026-05-06 19:37 37.63704 31.63506 36124 ft 457 kts 321°
2026-05-06 19:38 37.68809 31.58777 36119 ft 457 kts 321°
2026-05-06 19:38 37.73897 31.54057 36114 ft 457 kts 321°
2026-05-06 19:39 37.79005 31.49310 36110 ft 456 kts 321°
2026-05-06 19:39 37.84109 31.44558 36113 ft 457 kts 321°
2026-05-06 19:40 37.89189 31.39819 36122 ft 457 kts 321°
2026-05-06 19:40 37.94267 31.35074 36128 ft 457 kts 321°
2026-05-06 19:41 37.99343 31.30325 36128 ft 457 kts 320°
2026-05-06 19:41 38.04454 31.25533 36128 ft 457 kts 320°
2026-05-06 19:42 38.09537 31.20759 36128 ft 457 kts 320°
2026-05-06 19:42 38.14607 31.15993 36128 ft 456 kts 320°
2026-05-06 19:43 38.19683 31.11212 36128 ft 455 kts 320°
2026-05-06 19:43 38.24740 31.06440 36128 ft 454 kts 319°
2026-05-06 19:44 38.29790 31.01664 36128 ft 453 kts 319°
2026-05-06 19:44 38.34788 30.96929 36128 ft 451 kts 319°
2026-05-06 19:45 38.39800 30.92169 36128 ft 450 kts 319°
2026-05-06 19:45 38.44818 30.87392 36128 ft 451 kts 319°
2026-05-06 19:46 38.49802 30.82642 36128 ft 451 kts 319°
2026-05-06 19:46 38.54828 30.77844 36127 ft 451 kts 319°
2026-05-06 19:47 38.59825 30.73066 36128 ft 451 kts 319°
2026-05-06 19:47 38.64797 30.68304 36127 ft 451 kts 319°
2026-05-06 19:48 38.69838 30.63514 36127 ft 452 kts 321°
2026-05-06 19:48 38.75261 30.59453 36126 ft 456 kts 328°
2026-05-06 19:49 38.80607 30.55844 36128 ft 457 kts 328°
2026-05-06 19:49 38.86428 30.51971 36128 ft 457 kts 329°
2026-05-06 19:50 38.92050 30.48251 36128 ft 457 kts 329°
2026-05-06 19:50 38.97664 30.44543 36127 ft 455 kts 329°
2026-05-06 19:51 39.03254 30.40852 36128 ft 454 kts 328°
2026-05-06 19:51 39.08875 30.37135 36128 ft 454 kts 329°
2026-05-06 19:52 39.14449 30.33444 36128 ft 454 kts 328°
2026-05-06 19:52 39.20023 30.29749 36128 ft 454 kts 328°
2026-05-06 19:53 39.25619 30.26033 36128 ft 454 kts 328°
2026-05-06 19:53 39.31223 30.22307 36128 ft 454 kts 328°
2026-05-06 19:54 39.36783 30.18602 36128 ft 454 kts 328°
2026-05-06 19:54 39.42416 30.14842 36128 ft 455 kts 328°
2026-05-06 19:55 39.48015 30.11203 36127 ft 456 kts 331°
2026-05-06 19:55 39.53862 30.07971 36128 ft 457 kts 333°
2026-05-06 19:56 39.59698 30.04765 36128 ft 457 kts 332°
2026-05-06 19:56 39.62574 30.03175 35992 ft 455 kts 332°
2026-05-06 19:56 39.65472 30.01569 35670 ft 448 kts 332°
2026-05-06 19:57 39.68344 29.99974 35421 ft 450 kts 332°
2026-05-06 19:57 39.71214 29.98372 34635 ft 454 kts 332°
2026-05-06 19:57 39.74086 29.96766 33848 ft 456 kts 332°
2026-05-06 19:57 39.77011 29.95128 33058 ft 458 kts 332°
2026-05-06 19:58 39.79921 29.93493 32154 ft 462 kts 332°
2026-05-06 19:58 39.82837 29.91851 31295 ft 465 kts 333°
2026-05-06 19:58 39.85793 29.90187 30379 ft 468 kts 333°
2026-05-06 19:58 39.88685 29.88290 29432 ft 467 kts 325°
2026-05-06 19:59 39.91393 29.86011 28499 ft 468 kts 322°
2026-05-06 19:59 39.94109 29.83628 27455 ft 472 kts 323°
2026-05-06 19:59 39.96833 29.81257 26436 ft 475 kts 323°
2026-05-06 19:59 39.99575 29.78898 25403 ft 477 kts 324°
2026-05-06 20:00 40.02331 29.76548 24650 ft 471 kts 324°
2026-05-06 20:00 40.05051 29.74240 23846 ft 468 kts 324°
2026-05-06 20:00 40.07736 29.71969 23103 ft 463 kts 325°
2026-05-06 20:00 40.10416 29.69706 22370 ft 458 kts 325°
2026-05-06 20:01 40.13045 29.67487 21606 ft 454 kts 325°
2026-05-06 20:01 40.15716 29.65234 20865 ft 449 kts 325°
2026-05-06 20:01 40.18282 29.63067 20134 ft 445 kts 325°
2026-05-06 20:01 40.20861 29.60860 19403 ft 440 kts 325°
2026-05-06 20:02 40.23369 29.58679 18621 ft 437 kts 325°
2026-05-06 20:02 40.25897 29.56470 17888 ft 432 kts 325°
2026-05-06 20:02 40.28358 29.54329 17234 ft 426 kts 326°
2026-05-06 20:02 40.30812 29.52218 16609 ft 421 kts 326°
2026-05-06 20:03 40.33272 29.50131 15980 ft 418 kts 327°
2026-05-06 20:03 40.35690 29.48110 15360 ft 415 kts 327°
2026-05-06 20:03 40.38130 29.46100 14730 ft 412 kts 328°
2026-05-06 20:03 40.40548 29.44129 14103 ft 408 kts 328°
2026-05-06 20:04 40.42948 29.42191 13476 ft 403 kts 328°
2026-05-06 20:04 40.45314 29.40288 12851 ft 399 kts 328°
2026-05-06 20:04 40.47665 29.38394 12226 ft 395 kts 328°
2026-05-06 20:04 40.49978 29.36516 11602 ft 392 kts 328°
2026-05-06 20:05 40.52259 29.34628 10978 ft 388 kts 327°
2026-05-06 20:05 40.54503 29.32735 10352 ft 383 kts 327°
2026-05-06 20:05 40.56720 29.30831 9555 ft 383 kts 327°
2026-05-06 20:05 40.58882 29.28944 8796 ft 367 kts 327°
2026-05-06 20:06 40.60950 29.27113 8160 ft 350 kts 327°
2026-05-06 20:06 40.62913 29.25361 7538 ft 336 kts 327°
2026-05-06 20:06 40.64789 29.23691 7115 ft 319 kts 327°
2026-05-06 20:06 40.66595 29.22106 6538 ft 310 kts 328°
2026-05-06 20:07 40.68374 29.20560 5994 ft 300 kts 328°
2026-05-06 20:07 40.70063 29.19101 5733 ft 284 kts 329°
2026-05-06 20:07 40.71704 29.17689 5196 ft 280 kts 329°
2026-05-06 20:07 40.73281 29.16334 4986 ft 263 kts 329°
2026-05-06 20:08 40.74758 29.15064 4988 ft 243 kts 329°
2026-05-06 20:08 40.76158 29.13862 5000 ft 238 kts 329°
2026-05-06 20:08 40.77529 29.12686 4993 ft 236 kts 329°
2026-05-06 20:08 40.78911 29.11500 4993 ft 234 kts 329°
2026-05-06 20:09 40.80275 29.10328 4993 ft 233 kts 329°
2026-05-06 20:09 40.81636 29.09158 4994 ft 233 kts 329°
2026-05-06 20:09 40.82982 29.08000 4993 ft 233 kts 329°
2026-05-06 20:09 40.84345 29.06825 4993 ft 233 kts 329°
2026-05-06 20:10 40.85700 29.05658 4993 ft 233 kts 329°
2026-05-06 20:10 40.87046 29.04497 4994 ft 232 kts 329°
2026-05-06 20:10 40.88403 29.03327 4993 ft 232 kts 329°
2026-05-06 20:10 40.89730 29.02130 4990 ft 233 kts 322°
2026-05-06 20:11 40.90740 29.00448 4987 ft 236 kts 293°
2026-05-06 20:11 40.91002 28.98302 5000 ft 236 kts 266°
2026-05-06 20:11 40.90863 28.96143 5000 ft 235 kts 264°
2026-05-06 20:11 40.90715 28.94016 4989 ft 234 kts 265°
2026-05-06 20:12 40.90572 28.91868 4994 ft 234 kts 265°
2026-05-06 20:12 40.90432 28.89736 4993 ft 234 kts 265°
2026-05-06 20:12 40.90291 28.87574 4992 ft 234 kts 265°
2026-05-06 20:12 40.90152 28.85446 4993 ft 233 kts 265°
2026-05-06 20:13 40.90013 28.83310 4993 ft 233 kts 265°
2026-05-06 20:13 40.89874 28.81186 4993 ft 232 kts 265°
2026-05-06 20:13 40.89771 28.79105 4985 ft 221 kts 276°
2026-05-06 20:13 40.90213 28.77241 5005 ft 212 kts 304°
2026-05-06 20:14 40.91261 28.75861 4997 ft 215 kts 327°
2026-05-06 20:14 40.92607 28.75065 4988 ft 213 kts 340°
2026-05-06 20:14 40.94030 28.74497 4987 ft 213 kts 340°
2026-05-06 20:14 40.95382 28.73711 4992 ft 213 kts 333°
2026-05-06 20:15 40.96711 28.72806 4984 ft 216 kts 334°
2026-05-06 20:15 40.98072 28.71938 4777 ft 219 kts 339°
2026-05-06 20:15 40.99526 28.71408 4402 ft 216 kts 354°
2026-05-06 20:15 41.01002 28.71265 4124 ft 210 kts
2026-05-06 20:16 41.02404 28.71223 4037 ft 193 kts
2026-05-06 20:16 41.03724 28.71194 3758 ft 188 kts
2026-05-06 20:16 41.05015 28.71168 3448 ft 185 kts
2026-05-06 20:16 41.06291 28.71143 3120 ft 183 kts
2026-05-06 20:17 41.07546 28.71118 2991 ft 177 kts
2026-05-06 20:17 41.08789 28.71094 3013 ft 183 kts
2026-05-06 20:17 41.10077 28.71068 2982 ft 182 kts
2026-05-06 20:17 41.11329 28.71044 2993 ft 181 kts
2026-05-06 20:18 41.12584 28.71019 2990 ft 180 kts
2026-05-06 20:18 41.13851 28.70994 2836 ft 186 kts
2026-05-06 20:18 41.15092 28.70969 2607 ft 174 kts
2026-05-06 20:18 41.16280 28.70946 2358 ft 167 kts
2026-05-06 20:19 41.17411 28.70923 2174 ft 158 kts
2026-05-06 20:19 41.18508 28.70901 1930 ft 154 kts
2026-05-06 20:19 41.19553 28.70881 1729 ft 152 kts
2026-05-06 20:19 41.20623 28.70859 1522 ft 153 kts
2026-05-06 20:20 41.21676 28.70836 1322 ft 152 kts
2026-05-06 20:20 41.22730 28.70806 1117 ft 149 kts
2026-05-06 20:20 41.23756 28.70797 909 ft 148 kts
2026-05-06 20:20 41.24775 28.70769 730 ft 146 kts
2026-05-06 20:21 41.25792 28.70749 535 ft 145 kts
2026-05-06 20:21 41.26792 28.70734 357 ft 144 kts
2026-05-06 20:21 41.27714 28.70720 334 ft 115 kts 360°
2026-05-06 20:21 41.28385 28.70701 334 ft 79 kts 359°
2026-05-06 20:22 41.28745 28.70696 334 ft 27 kts
2026-05-06 20:22 41.28891 28.70715 334 ft 17 kts 15°
2026-05-06 20:22 41.29001 28.70775 334 ft 14 kts 26°
2026-05-06 20:22 41.29057 28.70814 334 ft 8 kts 28°
2026-05-06 20:23 41.29081 28.70831 334 ft 2 kts 28°
2026-05-06 20:23 41.29095 28.70841 334 ft 1 kts 28°
2026-05-06 20:23 41.29110 28.70852 334 ft 4 kts 27°
2026-05-06 20:23 41.29152 28.70882 334 ft 7 kts 29°
2026-05-06 20:24 41.29157 28.70886 334 ft 0 kts 29°
2026-05-06 20:24 41.29160 28.70888 334 ft 0 kts 29°
2026-05-06 20:25 41.29164 28.70891 334 ft 2 kts 29°
2026-05-06 20:25 41.29192 28.70913 334 ft 7 kts 34°
2026-05-06 20:26 41.29219 28.70957 334 ft 6 kts 63°
2026-05-06 20:26 41.29228 28.71027 334 ft 8 kts 89°
2026-05-06 20:26 41.29226 28.71105 334 ft 5 kts 96°
2026-05-06 20:26 41.29207 28.71158 334 ft 8 kts 140°
2026-05-06 20:27 41.29136 28.71174 334 ft 12 kts 176°
2026-05-06 20:27 41.29042 28.71179 334 ft 14 kts 179°
2026-05-06 20:27 41.28923 28.71175 334 ft 19 kts 181°
2026-05-06 20:27 41.28777 28.71177 334 ft 22 kts 179°
2026-05-06 20:28 41.28634 28.71184 334 ft 21 kts 179°
2026-05-06 20:28 41.28479 28.71188 334 ft 22 kts 178°
2026-05-06 20:28 41.28337 28.71185 334 ft 18 kts 179°
2026-05-06 20:28 41.28218 28.71188 334 ft 17 kts 179°
2026-05-06 20:29 41.28088 28.71190 334 ft 18 kts 179°
2026-05-06 20:29 41.27962 28.71191 334 ft 18 kts 179°
2026-05-06 20:29 41.27831 28.71196 334 ft 20 kts 179°
2026-05-06 20:29 41.27687 28.71199 334 ft 20 kts 178°
2026-05-06 20:30 41.27554 28.71201 334 ft 18 kts 179°
2026-05-06 20:30 41.27313 28.71205 334 ft 16 kts 179°
2026-05-06 20:30 41.27208 28.71210 334 ft 11 kts 178°
2026-05-06 20:31 41.27131 28.71213 334 ft 10 kts 180°
2026-05-06 20:31 41.27037 28.71212 334 ft 16 kts 181°
2026-05-06 20:31 41.26920 28.71213 334 ft 13 kts 179°
2026-05-06 20:31 41.26836 28.71218 334 ft 11 kts 176°
2026-05-06 20:32 41.26768 28.71220 334 ft 7 kts 179°
2026-05-06 20:32 41.26734 28.71221 334 ft 3 kts 178°
2026-05-06 20:32 41.26711 28.71228 334 ft 4 kts 147°
2026-05-06 20:32 41.26693 28.71284 334 ft 9 kts 91°
2026-05-06 20:33 41.26693 28.71393 334 ft 13 kts 90°
2026-05-06 20:33 41.26694 28.71537 334 ft 15 kts 85°
2026-05-06 20:33 41.26697 28.71680 334 ft 15 kts 90°
2026-05-06 20:33 41.26697 28.71826 334 ft 17 kts 90°
2026-05-06 20:34 41.26699 28.71993 334 ft 17 kts 89°
2026-05-06 20:34 41.26701 28.72147 334 ft 16 kts 90°
2026-05-06 20:34 41.26703 28.72292 334 ft 14 kts 90°
2026-05-06 20:34 41.26702 28.72370 334 ft 6 kts 89°
2026-05-06 20:35 41.26703 28.72418 334 ft 0 kts 89°
2026-05-06 20:35 41.26703 28.72420 334 ft 1 kts 89°
2026-05-06 20:36 41.26704 28.72462 334 ft 7 kts 88°
2026-05-06 20:36 41.26707 28.72559 334 ft 12 kts 90°
2026-05-06 20:36 41.26707 28.72665 334 ft 10 kts 90°
2026-05-06 20:36 41.26708 28.72782 334 ft 14 kts 89°
2026-05-06 20:37 41.26711 28.72887 334 ft 10 kts 88°
2026-05-06 20:37 41.26712 28.72927 334 ft 1 kts 88°
2026-05-06 20:37 41.26717 28.72965 334 ft 7 kts 65°
2026-05-06 20:37 41.26753 28.72993 334 ft 2 kts 11°
2026-05-06 20:38 41.26791 28.73003 334 ft 8 kts
2026-05-06 20:38 41.26841 28.73019 334 ft 4 kts 39°
2026-05-06 20:38 41.26857 28.73058 334 ft 4 kts 73°
2026-05-06 20:38 41.26865 28.73105 334 ft 5 kts 82°
2026-05-06 20:39 41.26869 28.73172 334 ft 9 kts 89°
2026-05-06 20:39 41.26866 28.73286 334 ft 13 kts 92°
2026-05-06 20:39 41.26860 28.73396 334 ft 11 kts 95°
2026-05-06 20:39 41.26859 28.73497 334 ft 8 kts 90°
2026-05-06 20:40 41.26859 28.73567 334 ft 8 kts 89°
2026-05-06 20:40 41.26861 28.73669 334 ft 11 kts 89°
2026-05-06 20:40 41.26861 28.73775 334 ft 10 kts 90°
2026-05-06 20:40 41.26861 28.73877 334 ft 6 kts 89°
2026-05-06 20:41 41.26862 28.73935 334 ft 1 kts 90°
2026-05-06 20:41 41.26862 28.73955 334 ft 4 kts 89°
2026-05-06 20:41 41.26853 28.73994 334 ft 4 kts 132°
2026-05-06 20:41 41.26833 28.74014 334 ft 3 kts 163°
2026-05-06 20:42 41.26783 28.74015 334 ft 10 kts 180°
2026-05-06 20:42 41.26686 28.74015 334 ft 16 kts 179°
2026-05-06 20:42 41.26568 28.74020 334 ft 14 kts 177°
2026-05-06 20:42 41.26472 28.74025 334 ft 12 kts 177°
2026-05-06 20:43 41.26417 28.74028 334 ft 2 kts 175°
2026-05-06 20:43 41.26395 28.74037 334 ft 4 kts 145°
2026-05-06 20:43 41.26383 28.74071 334 ft 3 kts 109°
2026-05-06 20:43 41.26375 28.74101 334 ft 3 kts 111°
2026-05-06 20:44 41.26370 28.74119 334 ft 0 kts 111°
2026-05-06 20:44 41.26368 28.74124 334 ft 0 kts 111°